CXA8185 ZSHC-ZSAM

Flight info

Callsign CXA8185
Flight time 1h 12m
Altitude 36100
Route UGAG5E/07 UGAGO A470 ENVEN ENVEN8X
Aircraft A21N/M-SDE2E3FGHIRWXY/LB1

Departure

Time 2026-05-08 12:04
Airport Hangzhou Xiaoshan International Airport (ZSHC)

Arrival

Time 2026-05-08 13:16
Airport Xiamen Gaoqi International Airport (ZSAM)
Time Latitude Longitude Altitude Speed Heading
2026-05-08 11:37 30.23713 120.43441 29 ft 0 kts 242°
2026-05-08 11:52 30.23720 120.43456 29 ft 2 kts 242°
2026-05-08 11:52 30.23727 120.43471 29 ft 2 kts 243°
2026-05-08 11:52 30.23734 120.43487 29 ft 2 kts 242°
2026-05-08 11:52 30.23741 120.43502 29 ft 2 kts 242°
2026-05-08 11:53 30.23745 120.43512 29 ft 2 kts 237°
2026-05-08 11:53 30.23756 120.43523 29 ft 2 kts 201°
2026-05-08 11:53 30.23772 120.43526 29 ft 2 kts 171°
2026-05-08 11:53 30.23780 120.43523 29 ft 1 kts 153°
2026-05-08 11:54 30.23786 120.43520 29 ft 0 kts 152°
2026-05-08 11:56 30.23779 120.43523 29 ft 1 kts 152°
2026-05-08 11:56 30.23759 120.43536 29 ft 4 kts 154°
2026-05-08 11:57 30.23719 120.43558 29 ft 7 kts 153°
2026-05-08 11:57 30.23661 120.43591 29 ft 10 kts 152°
2026-05-08 11:57 30.23585 120.43636 29 ft 13 kts 153°
2026-05-08 11:57 30.23495 120.43689 29 ft 15 kts 153°
2026-05-08 11:58 30.23408 120.43740 29 ft 9 kts 156°
2026-05-08 11:58 30.23352 120.43708 29 ft 11 kts 241°
2026-05-08 11:58 30.23311 120.43615 29 ft 14 kts 243°
2026-05-08 11:59 30.23205 120.43380 29 ft 18 kts 245°
2026-05-08 11:59 30.23146 120.43242 29 ft 20 kts 242°
2026-05-08 11:59 30.23079 120.43093 29 ft 21 kts 241°
2026-05-08 11:59 30.23010 120.42935 29 ft 22 kts 243°
2026-05-08 12:00 30.22937 120.42769 29 ft 23 kts 243°
2026-05-08 12:00 30.22878 120.42637 29 ft 16 kts 242°
2026-05-08 12:00 30.22823 120.42513 29 ft 18 kts 243°
2026-05-08 12:00 30.22763 120.42376 29 ft 19 kts 242°
2026-05-08 12:01 30.22698 120.42230 29 ft 21 kts 243°
2026-05-08 12:01 30.22629 120.42074 29 ft 22 kts 243°
2026-05-08 12:01 30.22564 120.41927 29 ft 15 kts 243°
2026-05-08 12:01 30.22514 120.41814 29 ft 15 kts 243°
2026-05-08 12:02 30.22470 120.41713 29 ft 10 kts 243°
2026-05-08 12:02 30.22409 120.41676 29 ft 11 kts 164°
2026-05-08 12:02 30.22336 120.41715 29 ft 11 kts 153°
2026-05-08 12:02 30.22262 120.41760 29 ft 9 kts 151°
2026-05-08 12:03 30.22236 120.41824 29 ft 9 kts 74°
2026-05-08 12:03 30.22247 120.41853 29 ft 0 kts 64°
2026-05-08 12:03 30.22252 120.41866 29 ft 7 kts 64°
2026-05-08 12:03 30.22391 120.42181 29 ft 80 kts 63°
2026-05-08 12:04 30.22755 120.42993 29 ft 142 kts 63°
2026-05-08 12:04 30.23265 120.44164 161 ft 178 kts 65°
2026-05-08 12:04 30.23826 120.45555 556 ft 200 kts 67°
2026-05-08 12:04 30.24155 120.47079 1444 ft 196 kts 91°
2026-05-08 12:05 30.23988 120.48572 2357 ft 189 kts 97°
2026-05-08 12:05 30.23791 120.50124 2731 ft 205 kts 97°
2026-05-08 12:05 30.23586 120.51831 3071 ft 225 kts 96°
2026-05-08 12:05 30.23374 120.53690 3479 ft 242 kts 96°
2026-05-08 12:06 30.23140 120.55666 4061 ft 251 kts 99°
2026-05-08 12:06 30.22398 120.57471 4740 ft 260 kts 130°
2026-05-08 12:06 30.20897 120.58684 5506 ft 267 kts 150°
2026-05-08 12:06 30.19214 120.59621 6259 ft 271 kts 151°
2026-05-08 12:07 30.17443 120.60416 6950 ft 279 kts 168°
2026-05-08 12:07 30.15500 120.60274 7625 ft 288 kts 197°
2026-05-08 12:07 30.13774 120.59083 8327 ft 292 kts 225°
2026-05-08 12:07 30.12667 120.57147 9047 ft 293 kts 245°
2026-05-08 12:08 30.11777 120.55018 9814 ft 295 kts 245°
2026-05-08 12:08 30.10879 120.52898 10558 ft 297 kts 245°
2026-05-08 12:08 30.09961 120.50777 11266 ft 299 kts 245°
2026-05-08 12:08 30.09021 120.48631 11970 ft 302 kts 245°
2026-05-08 12:09 30.08068 120.46471 12663 ft 304 kts 245°
2026-05-08 12:09 30.07112 120.44315 13326 ft 306 kts 245°
2026-05-08 12:09 30.06132 120.42113 13793 ft 307 kts 246°
2026-05-08 12:09 30.05170 120.39951 13975 ft 306 kts 246°
2026-05-08 12:10 30.04178 120.37717 14190 ft 314 kts 245°
2026-05-08 12:10 30.03163 120.35438 14480 ft 329 kts 245°
2026-05-08 12:10 30.02091 120.33033 14753 ft 344 kts 245°
2026-05-08 12:10 30.00961 120.30506 15054 ft 356 kts 245°
2026-05-08 12:11 29.99820 120.27960 15614 ft 359 kts 245°
2026-05-08 12:11 29.98660 120.25441 16299 ft 357 kts 243°
2026-05-08 12:11 29.97474 120.22939 16941 ft 356 kts 243°
2026-05-08 12:11 29.96286 120.20440 17537 ft 355 kts 243°
2026-05-08 12:12 29.95111 120.17965 18097 ft 354 kts 243°
2026-05-08 12:12 29.93922 120.15462 18636 ft 355 kts 244°
2026-05-08 12:12 29.92743 120.12983 19089 ft 357 kts 244°
2026-05-08 12:12 29.91555 120.10478 19554 ft 359 kts 244°
2026-05-08 12:13 29.90354 120.07945 19971 ft 362 kts 245°
2026-05-08 12:13 29.89134 120.05375 20386 ft 365 kts 245°
2026-05-08 12:13 29.87919 120.02819 20814 ft 367 kts 245°
2026-05-08 12:13 29.86688 120.00237 21233 ft 369 kts 244°
2026-05-08 12:14 29.85356 119.97697 21631 ft 373 kts 242°
2026-05-08 12:14 29.83883 119.95219 22043 ft 376 kts 239°
2026-05-08 12:14 29.82282 119.92833 22415 ft 380 kts 236°
2026-05-08 12:14 29.80601 119.90430 22779 ft 383 kts 237°
2026-05-08 12:15 29.78933 119.88049 23135 ft 385 kts 237°
2026-05-08 12:15 29.77243 119.85636 23550 ft 386 kts 237°
2026-05-08 12:15 29.75568 119.83254 23967 ft 387 kts 237°
2026-05-08 12:15 29.73869 119.80839 24362 ft 388 kts 237°
2026-05-08 12:16 29.72152 119.78397 24768 ft 389 kts 236°
2026-05-08 12:16 29.70444 119.75971 25186 ft 389 kts 237°
2026-05-08 12:16 29.68735 119.73551 25583 ft 389 kts 236°
2026-05-08 12:16 29.67044 119.71150 25774 ft 390 kts 236°
2026-05-08 12:17 29.65321 119.68765 25770 ft 392 kts 233°
2026-05-08 12:17 29.63169 119.66771 25769 ft 404 kts 218°
2026-05-08 12:17 29.60548 119.65448 25775 ft 418 kts 204°
2026-05-08 12:17 29.57629 119.64930 25785 ft 431 kts 191°
2026-05-08 12:18 29.54612 119.64824 25778 ft 432 kts 189°
2026-05-08 12:18 29.51625 119.64683 25776 ft 431 kts 190°
2026-05-08 12:18 29.48599 119.64502 25773 ft 430 kts 191°
2026-05-08 12:18 29.45631 119.64314 25772 ft 430 kts 191°
2026-05-08 12:19 29.42622 119.64123 25776 ft 431 kts 191°
2026-05-08 12:19 29.39610 119.63935 25773 ft 431 kts 190°
2026-05-08 12:19 29.36628 119.63750 25773 ft 431 kts 191°
2026-05-08 12:19 29.33593 119.63562 25770 ft 431 kts 191°
2026-05-08 12:20 29.30864 119.63394 25774 ft 431 kts 190°
2026-05-08 12:20 29.27880 119.63213 25774 ft 430 kts 191°
2026-05-08 12:20 29.24885 119.63030 25775 ft 430 kts 190°
2026-05-08 12:20 29.21915 119.62849 25775 ft 430 kts 190°
2026-05-08 12:21 29.18909 119.62667 25773 ft 429 kts 190°
2026-05-08 12:21 29.15936 119.62485 25775 ft 430 kts 190°
2026-05-08 12:21 29.12921 119.62303 25773 ft 429 kts 190°
2026-05-08 12:21 29.09933 119.62121 25771 ft 429 kts 190°
2026-05-08 12:22 29.06985 119.61940 25774 ft 430 kts 190°
2026-05-08 12:22 29.03976 119.61751 25772 ft 430 kts 190°
2026-05-08 12:22 29.00962 119.61561 25771 ft 430 kts 190°
2026-05-08 12:22 28.97972 119.61375 25771 ft 431 kts 190°
2026-05-08 12:23 28.94951 119.61188 25771 ft 430 kts 190°
2026-05-08 12:23 28.91944 119.61002 25771 ft 430 kts 190°
2026-05-08 12:23 28.88975 119.60817 25766 ft 429 kts 190°
2026-05-08 12:23 28.85949 119.60628 25770 ft 430 kts 190°
2026-05-08 12:24 28.82932 119.60442 25770 ft 429 kts 190°
2026-05-08 12:24 28.79936 119.60256 25768 ft 429 kts 190°
2026-05-08 12:24 28.76954 119.60072 25768 ft 429 kts 190°
2026-05-08 12:24 28.73958 119.59885 25767 ft 429 kts 190°
2026-05-08 12:25 28.70977 119.59701 25765 ft 429 kts 190°
2026-05-08 12:25 28.67976 119.59516 25769 ft 428 kts 190°
2026-05-08 12:25 28.64993 119.59333 25767 ft 427 kts 190°
2026-05-08 12:25 28.62006 119.59148 25769 ft 429 kts 190°
2026-05-08 12:26 28.59066 119.58964 25772 ft 429 kts 190°
2026-05-08 12:26 28.56066 119.58778 25772 ft 429 kts 190°
2026-05-08 12:26 28.53079 119.58594 25770 ft 430 kts 190°
2026-05-08 12:26 28.50115 119.58412 25770 ft 429 kts 190°
2026-05-08 12:27 28.47118 119.58228 25770 ft 429 kts 190°
2026-05-08 12:27 28.44114 119.58051 25770 ft 429 kts 190°
2026-05-08 12:27 28.41152 119.57883 25771 ft 428 kts 190°
2026-05-08 12:27 28.38168 119.57719 25770 ft 429 kts 190°
2026-05-08 12:28 28.35155 119.57553 25768 ft 429 kts 190°
2026-05-08 12:28 28.32208 119.57391 25769 ft 428 kts 190°
2026-05-08 12:28 28.29193 119.57224 25766 ft 429 kts 189°
2026-05-08 12:28 28.26227 119.57061 25766 ft 429 kts 189°
2026-05-08 12:29 28.23237 119.56898 25763 ft 429 kts 190°
2026-05-08 12:29 28.20256 119.56733 25761 ft 429 kts 190°
2026-05-08 12:29 28.17282 119.56569 25763 ft 429 kts 190°
2026-05-08 12:29 28.14289 119.56402 25761 ft 429 kts 189°
2026-05-08 12:30 28.11306 119.56239 25759 ft 428 kts 190°
2026-05-08 12:30 28.08297 119.56149 25763 ft 430 kts 188°
2026-05-08 12:30 28.05316 119.56100 25758 ft 429 kts 188°
2026-05-08 12:30 28.02337 119.56053 25758 ft 431 kts 188°
2026-05-08 12:31 27.99336 119.56006 25759 ft 431 kts 188°
2026-05-08 12:31 27.96298 119.55960 25763 ft 430 kts 188°
2026-05-08 12:31 27.93308 119.55915 25756 ft 430 kts 188°
2026-05-08 12:31 27.90305 119.55878 25751 ft 432 kts 188°
2026-05-08 12:32 27.87276 119.55858 25756 ft 431 kts 188°
2026-05-08 12:32 27.84244 119.55841 25755 ft 431 kts 187°
2026-05-08 12:32 27.81243 119.55827 25759 ft 433 kts 187°
2026-05-08 12:32 27.78232 119.55812 25756 ft 432 kts 187°
2026-05-08 12:33 27.75174 119.55795 25758 ft 432 kts 187°
2026-05-08 12:33 27.72192 119.55778 25754 ft 432 kts 187°
2026-05-08 12:33 27.69167 119.55764 25753 ft 432 kts 187°
2026-05-08 12:33 27.66145 119.55745 25753 ft 433 kts 187°
2026-05-08 12:34 27.63136 119.55729 25752 ft 433 kts 188°
2026-05-08 12:34 27.60114 119.55711 25754 ft 434 kts 187°
2026-05-08 12:34 27.57075 119.55693 25753 ft 434 kts 188°
2026-05-08 12:34 27.54070 119.55677 25754 ft 435 kts 188°
2026-05-08 12:35 27.51035 119.55659 25750 ft 435 kts 188°
2026-05-08 12:35 27.48020 119.55642 25756 ft 434 kts 187°
2026-05-08 12:35 27.44988 119.55625 25753 ft 435 kts 188°
2026-05-08 12:35 27.41955 119.55612 25748 ft 434 kts 187°
2026-05-08 12:36 27.38939 119.55605 25753 ft 435 kts 187°
2026-05-08 12:36 27.35882 119.55598 25754 ft 435 kts 187°
2026-05-08 12:36 27.32880 119.55594 25753 ft 436 kts 187°
2026-05-08 12:36 27.29802 119.55594 25752 ft 436 kts 187°
2026-05-08 12:37 27.26703 119.55592 25748 ft 437 kts 188°
2026-05-08 12:37 27.23661 119.55579 25752 ft 437 kts 188°
2026-05-08 12:37 27.20610 119.55558 25749 ft 437 kts 188°
2026-05-08 12:37 27.17564 119.55536 25748 ft 437 kts 188°
2026-05-08 12:38 27.14529 119.55514 25745 ft 436 kts 188°
2026-05-08 12:38 27.11391 119.55493 25745 ft 437 kts 188°
2026-05-08 12:38 27.08378 119.55474 25740 ft 437 kts 188°
2026-05-08 12:38 27.05323 119.55453 25742 ft 437 kts 188°
2026-05-08 12:39 27.02266 119.55434 25738 ft 437 kts 188°
2026-05-08 12:39 26.99155 119.55414 25742 ft 438 kts 188°
2026-05-08 12:39 26.96046 119.55393 25739 ft 438 kts 188°
2026-05-08 12:39 26.93014 119.55374 25738 ft 438 kts 187°
2026-05-08 12:40 26.89937 119.55353 25739 ft 439 kts 187°
2026-05-08 12:40 26.86910 119.55334 25740 ft 438 kts 187°
2026-05-08 12:40 26.83827 119.55315 25740 ft 439 kts 187°
2026-05-08 12:40 26.80765 119.55296 25737 ft 439 kts 187°
2026-05-08 12:41 26.77736 119.55276 25735 ft 439 kts 187°
2026-05-08 12:41 26.74672 119.55258 25732 ft 439 kts 187°
2026-05-08 12:41 26.71603 119.55238 25729 ft 439 kts 187°
2026-05-08 12:41 26.68557 119.55218 25728 ft 439 kts 187°
2026-05-08 12:42 26.65475 119.55198 25729 ft 440 kts 187°
2026-05-08 12:42 26.62390 119.55179 25729 ft 440 kts 187°
2026-05-08 12:42 26.59296 119.55160 25728 ft 440 kts 187°
2026-05-08 12:42 26.56256 119.55141 25728 ft 439 kts 187°
2026-05-08 12:43 26.53153 119.55122 25728 ft 440 kts 187°
2026-05-08 12:43 26.50109 119.55102 25725 ft 440 kts 187°
2026-05-08 12:43 26.47035 119.55083 25724 ft 441 kts 187°
2026-05-08 12:43 26.43973 119.55064 25725 ft 441 kts 187°
2026-05-08 12:44 26.40905 119.55045 25726 ft 440 kts 187°
2026-05-08 12:44 26.37826 119.55025 25723 ft 440 kts 187°
2026-05-08 12:44 26.34772 119.54992 25720 ft 440 kts 187°
2026-05-08 12:44 26.31725 119.54954 25719 ft 440 kts 187°
2026-05-08 12:45 26.28669 119.54916 25719 ft 440 kts 187°
2026-05-08 12:45 26.25583 119.54842 25717 ft 438 kts 189°
2026-05-08 12:45 26.22585 119.54527 25716 ft 434 kts 194°
2026-05-08 12:45 26.19608 119.53925 25716 ft 430 kts 199°
2026-05-08 12:46 26.16702 119.53056 25722 ft 427 kts 203°
2026-05-08 12:46 26.13876 119.52100 25719 ft 427 kts 204°
2026-05-08 12:46 26.11051 119.51128 25720 ft 427 kts 204°
2026-05-08 12:46 26.08187 119.50142 25717 ft 427 kts 204°
2026-05-08 12:47 26.05617 119.49260 25719 ft 427 kts 204°
2026-05-08 12:47 26.02776 119.48289 25718 ft 427 kts 204°
2026-05-08 12:47 25.99938 119.47322 25718 ft 427 kts 204°
2026-05-08 12:47 25.97096 119.46353 25723 ft 427 kts 204°
2026-05-08 12:48 25.94246 119.45383 25723 ft 427 kts 204°
2026-05-08 12:48 25.91388 119.44411 25723 ft 428 kts 204°
2026-05-08 12:48 25.88561 119.43449 25725 ft 428 kts 203°
2026-05-08 12:48 25.85683 119.42472 25673 ft 425 kts 203°
2026-05-08 12:49 25.82876 119.41522 25288 ft 420 kts 203°
2026-05-08 12:49 25.80062 119.40566 24648 ft 419 kts 203°
2026-05-08 12:49 25.77292 119.39602 24037 ft 415 kts 206°
2026-05-08 12:49 25.74732 119.38287 23495 ft 404 kts 215°
2026-05-08 12:50 25.72441 119.36513 22976 ft 394 kts 225°
2026-05-08 12:50 25.70471 119.34410 22448 ft 388 kts 230°
2026-05-08 12:50 25.68641 119.32268 21936 ft 385 kts 231°
2026-05-08 12:50 25.66788 119.30074 21410 ft 383 kts 231°
2026-05-08 12:51 25.64987 119.27943 20906 ft 380 kts 230°
2026-05-08 12:51 25.61371 119.23681 19886 ft 375 kts 230°
2026-05-08 12:51 25.59597 119.21596 19389 ft 373 kts 230°
2026-05-08 12:52 25.57814 119.19503 18874 ft 370 kts 230°
2026-05-08 12:52 25.54290 119.15368 17854 ft 366 kts 230°
2026-05-08 12:52 25.52569 119.13350 17365 ft 364 kts 229°
2026-05-08 12:53 25.50839 119.11324 16872 ft 362 kts 229°
2026-05-08 12:53 25.49101 119.09289 16384 ft 359 kts 229°
2026-05-08 12:53 25.47392 119.07289 15966 ft 356 kts 229°
2026-05-08 12:53 25.45691 119.05301 15812 ft 356 kts 229°
2026-05-08 12:54 25.43983 119.03303 15802 ft 357 kts 229°
2026-05-08 12:54 25.42277 119.01311 15796 ft 358 kts 229°
2026-05-08 12:54 25.40559 118.99307 15792 ft 358 kts 229°
2026-05-08 12:54 25.38861 118.97323 15789 ft 359 kts 229°
2026-05-08 12:55 25.37120 118.95291 15790 ft 359 kts 229°
2026-05-08 12:55 25.35412 118.93301 15791 ft 359 kts 230°
2026-05-08 12:55 25.33704 118.91303 15782 ft 359 kts 230°
2026-05-08 12:55 25.32003 118.89253 15779 ft 358 kts 231°
2026-05-08 12:56 25.30323 118.87214 15771 ft 358 kts 230°
2026-05-08 12:56 25.28657 118.85191 15770 ft 358 kts 230°
2026-05-08 12:56 25.26963 118.83137 15764 ft 357 kts 230°
2026-05-08 12:56 25.25312 118.81138 15774 ft 357 kts 230°
2026-05-08 12:57 25.23623 118.79093 15780 ft 357 kts 230°
2026-05-08 12:57 25.21944 118.77065 15775 ft 357 kts 230°
2026-05-08 12:57 25.20283 118.75055 15769 ft 357 kts 230°
2026-05-08 12:57 25.18616 118.73043 15659 ft 352 kts 230°
2026-05-08 12:58 25.16976 118.71064 15197 ft 350 kts 230°
2026-05-08 12:58 25.15330 118.69075 14616 ft 351 kts 230°
2026-05-08 12:58 25.13687 118.67093 14076 ft 350 kts 230°
2026-05-08 12:58 25.12041 118.65108 13594 ft 347 kts 230°
2026-05-08 12:59 25.10433 118.63173 13120 ft 344 kts 230°
2026-05-08 12:59 25.08808 118.61225 12604 ft 343 kts 229°
2026-05-08 12:59 25.07166 118.59325 12114 ft 341 kts 229°
2026-05-08 12:59 25.05527 118.57448 11892 ft 341 kts 228°
2026-05-08 13:00 25.03868 118.55550 11874 ft 343 kts 228°
2026-05-08 13:00 25.02226 118.53670 11874 ft 343 kts 228°
2026-05-08 13:00 25.00552 118.51756 11862 ft 343 kts 229°
2026-05-08 13:00 24.98906 118.49873 11860 ft 343 kts 229°
2026-05-08 13:01 24.97249 118.47977 11863 ft 343 kts 229°
2026-05-08 13:01 24.95588 118.46076 11865 ft 343 kts 229°
2026-05-08 13:01 24.93944 118.44194 11868 ft 343 kts 229°
2026-05-08 13:01 24.92275 118.42283 11865 ft 343 kts 229°
2026-05-08 13:02 24.90624 118.40395 11859 ft 343 kts 229°
2026-05-08 13:02 24.88963 118.38496 11872 ft 343 kts 229°
2026-05-08 13:02 24.87294 118.36587 11873 ft 343 kts 229°
2026-05-08 13:02 24.85648 118.34705 11878 ft 342 kts 228°
2026-05-08 13:03 24.83996 118.32819 11676 ft 337 kts 228°
2026-05-08 13:03 24.82378 118.30971 11114 ft 338 kts 228°
2026-05-08 13:03 24.80754 118.29115 10576 ft 338 kts 228°
2026-05-08 13:03 24.79116 118.27244 10048 ft 337 kts 228°
2026-05-08 13:04 24.77494 118.25393 9704 ft 330 kts 227°
2026-05-08 13:04 24.75933 118.23614 9511 ft 319 kts 228°
2026-05-08 13:04 24.74419 118.21892 9334 ft 308 kts 228°
2026-05-08 13:04 24.72951 118.20221 9165 ft 298 kts 228°
2026-05-08 13:05 24.71522 118.18594 8982 ft 288 kts 228°
2026-05-08 13:05 24.70142 118.17021 8700 ft 284 kts 228°
2026-05-08 13:05 24.68775 118.15462 8327 ft 282 kts 227°
2026-05-08 13:05 24.67420 118.13916 7929 ft 282 kts 227°
2026-05-08 13:06 24.66064 118.12371 7559 ft 281 kts 227°
2026-05-08 13:06 24.64700 118.10819 7187 ft 279 kts 226°
2026-05-08 13:06 24.63367 118.09304 6814 ft 278 kts 226°
2026-05-08 13:06 24.62027 118.07780 6419 ft 278 kts 226°
2026-05-08 13:07 24.60678 118.06248 6015 ft 278 kts 226°
2026-05-08 13:07 24.59323 118.04713 5618 ft 277 kts 226°
2026-05-08 13:07 24.57990 118.03200 5222 ft 277 kts 226°
2026-05-08 13:07 24.56651 118.01681 4920 ft 275 kts 226°
2026-05-08 13:08 24.55349 118.00149 4893 ft 276 kts 227°
2026-05-08 13:08 24.54052 117.98566 4886 ft 277 kts 228°
2026-05-08 13:08 24.52769 117.96992 4825 ft 274 kts 228°
2026-05-08 13:08 24.51501 117.95440 4532 ft 270 kts 227°
2026-05-08 13:09 24.50269 117.93937 4364 ft 261 kts 227°
2026-05-08 13:09 24.49065 117.92473 4198 ft 252 kts 227°
2026-05-08 13:09 24.47917 117.91078 4013 ft 245 kts 227°
2026-05-08 13:09 24.46603 117.89934 3819 ft 235 kts 197°
2026-05-08 13:10 24.45065 117.89869 3627 ft 219 kts 157°
2026-05-08 13:10 24.43805 117.90739 3373 ft 211 kts 135°
2026-05-08 13:10 24.42698 117.91791 3087 ft 211 kts 136°
2026-05-08 13:10 24.41804 117.93027 2758 ft 205 kts 105°
2026-05-08 13:11 24.41749 117.94534 2459 ft 197 kts 71°
2026-05-08 13:11 24.42321 117.95802 2364 ft 175 kts 56°
2026-05-08 13:11 24.42997 117.96806 2290 ft 154 kts 52°
2026-05-08 13:11 24.43624 117.97664 2295 ft 140 kts 52°
2026-05-08 13:12 24.44239 117.98506 2283 ft 139 kts 52°
2026-05-08 13:12 24.44840 117.99336 2280 ft 138 kts 52°
2026-05-08 13:12 24.45442 118.00177 2284 ft 138 kts 52°
2026-05-08 13:12 24.46029 118.01001 2284 ft 139 kts 53°
2026-05-08 13:13 24.46623 118.01835 2218 ft 138 kts 52°
2026-05-08 13:13 24.47213 118.02665 2050 ft 136 kts 52°
2026-05-08 13:13 24.47794 118.03483 1879 ft 136 kts 52°
2026-05-08 13:13 24.48379 118.04306 1703 ft 135 kts 51°
2026-05-08 13:14 24.48954 118.05112 1525 ft 135 kts 52°
2026-05-08 13:14 24.49538 118.05930 1344 ft 134 kts 52°
2026-05-08 13:14 24.50112 118.06735 1166 ft 134 kts 52°
2026-05-08 13:14 24.50684 118.07537 990 ft 133 kts 52°
2026-05-08 13:15 24.51259 118.08341 815 ft 133 kts 52°
2026-05-08 13:15 24.51830 118.09140 642 ft 133 kts 52°
2026-05-08 13:15 24.52403 118.09941 465 ft 132 kts 52°
2026-05-08 13:15 24.52964 118.10730 295 ft 130 kts 53°
2026-05-08 13:16 24.53520 118.11505 132 ft 126 kts 52°
2026-05-08 13:16 24.54031 118.12228 71 ft 107 kts 54°
2026-05-08 13:16 24.54422 118.12780 71 ft 69 kts 51°
2026-05-08 13:16 24.54627 118.13068 71 ft 28 kts 54°
2026-05-08 13:17 24.54692 118.13216 71 ft 20 kts 75°
2026-05-08 13:17 24.54717 118.13347 71 ft 13 kts 79°
2026-05-08 13:17 24.54726 118.13419 70 ft 10 kts 83°
2026-05-08 13:17 24.54739 118.13500 70 ft 11 kts 76°
2026-05-08 13:18 24.54782 118.13575 70 ft 12 kts 52°
2026-05-08 13:18 24.54837 118.13652 70 ft 13 kts 52°
2026-05-08 13:18 24.54899 118.13742 70 ft 16 kts 53°
2026-05-08 13:18 24.54977 118.13850 70 ft 19 kts 50°
2026-05-08 13:19 24.55037 118.13933 70 ft 7 kts 53°
2026-05-08 13:19 24.55047 118.13971 70 ft 7 kts 117°
2026-05-08 13:19 24.55027 118.14021 70 ft 7 kts 126°
2026-05-08 13:19 24.54969 118.14059 70 ft 11 kts 144°
2026-05-08 13:20 24.54912 118.14083 70 ft 7 kts 215°
2026-05-08 13:20 24.54890 118.14053 70 ft 4 kts 233°
2026-05-08 13:20 24.54889 118.14051 70 ft 0 kts 233°